Drummond Island, MI

11:03 AM EDT on May 28, 2017 (GMT -0400)
Drummond Island

Weather History for KDRM - April, 2014

Change the Weather History Date:

Friday, April 18, 2014

  Actual Average (KCIU) Record (KCIU)
Temperature  
Mean Temperature 34 °F -  
Max Temperature 37 °F 47 °F 71 °F (2005)
Min Temperature 30 °F 23 °F 9 °F (1983)
Degree Days  
Heating Degree Days 32    
Moisture  
Dew Point 29 °F    
Average Humidity 82    
Maximum Humidity 93    
Minimum Humidity 68    
Precipitation  
Precipitation 0.00 in - - ()
Sea Level Pressure  
Sea Level Pressure 30.29 in    
Wind  
Wind Speed 3 mph (NW)    
Max Wind Speed 8 mph    
Max Gust Speed -    
Visibility 10 miles    
Events      
Averages and records for this station are not official NWS values.
T = Trace of Precipitation, MM = Missing Value Source: NWS Daily Summary

Daily Weather History Graph

Daily Weather History Graph

Search for Another Location

Airport or City:

Trip Planner

Search our weather history database for the weather conditions in past years. The results will help you decide how hot, cold, wet, or windy it might be!

Date:

Astronomy

Apr. 18, 2014 Rise Set
Actual Time 6:43 AM EDT 8:26 PM EDT
Civil Twilight 6:11 AM EDT 8:57 PM EDT
Nautical Twilight 5:33 AM EDT 9:36 PM EDT
Astronomical Twilight 4:51 AM EDT 10:18 PM EDT
Moon No Moon Rise 8:57 AM EDT (4/18)
Length of Visible Light 14h 45m
Length of Day
13h 42m
Waning Gibbous, 87% of the Moon is Illuminated
Apr 18
Waning Gibbous
Apr 22
Last Quarter
Apr 29
New
May 6
First Quarter
May 14
Full

Hourly Weather History & Observations

Time (EDT) Temp. Windchill Dew Point Humidity Pressure Visibility Wind Dir Wind Speed Gust Speed Precip Events Conditions
12:15 AM 31.6 °F - 28.4 °F 88% 30.20 in 10.0 mi Calm Calm - N/A   Clear
12:35 AM 31.8 °F - 28.8 °F 88% 30.20 in 10.0 mi Calm Calm - N/A   Clear
12:55 AM 31.1 °F - 28.6 °F 90% 30.20 in 10.0 mi Calm Calm - N/A   Clear
1:15 AM 30.7 °F - 28.4 °F 91% 30.20 in 10.0 mi Calm Calm - N/A   Clear
1:35 AM 30.9 °F - 28.4 °F 90% 30.21 in 10.0 mi Calm Calm - N/A   Clear
1:55 AM 31.3 °F - 28.8 °F 90% 30.20 in 10.0 mi Calm Calm - N/A   Clear
2:15 AM 31.8 °F - 29.3 °F 90% 30.20 in 10.0 mi Calm Calm - N/A   Clear
2:35 AM 32.4 °F - 29.5 °F 89% 30.20 in 10.0 mi Calm Calm - N/A   Clear
2:55 AM 32.5 °F - 29.8 °F 90% 30.20 in 10.0 mi Calm Calm - N/A   Clear
3:15 AM 32.2 °F 28.9 °F 29.7 °F 90% 30.20 in 10.0 mi WNW 3.5 mph - N/A   Clear
3:34 AM 32.0 °F - 29.1 °F 89% 30.20 in 10.0 mi Calm Calm - N/A   Clear
3:55 AM 31.8 °F 27.3 °F 28.4 °F 87% 30.20 in 10.0 mi WNW 4.6 mph - N/A   Clear
4:14 AM 31.5 °F 28.1 °F 28.4 °F 88% 30.21 in 10.0 mi WNW 3.5 mph - N/A   Clear
4:35 AM 31.1 °F - 28.6 °F 90% 30.21 in 10.0 mi Calm Calm - N/A   Clear
4:55 AM 30.7 °F 27.3 °F 28.4 °F 91% 30.22 in 10.0 mi NW 3.5 mph - N/A   Scattered Clouds
5:14 AM 30.2 °F - 28.2 °F 92% 30.22 in 10.0 mi Calm Calm - N/A   Scattered Clouds
5:35 AM 30.6 °F 25.8 °F 28.4 °F 92% 30.22 in 10.0 mi WNW 4.6 mph - N/A   Mostly Cloudy
5:55 AM 31.5 °F 28.1 °F 29.3 °F 92% 30.23 in 10.0 mi NW 3.5 mph - N/A   Overcast
6:15 AM 32.0 °F 27.5 °F 30.2 °F 93% 30.23 in 10.0 mi NW 4.6 mph - N/A   Overcast
6:35 AM 32.0 °F 26.4 °F 30.2 °F 93% 30.23 in 10.0 mi NW 5.8 mph - N/A   Overcast
6:55 AM 32.0 °F 27.5 °F 30.2 °F 93% 30.24 in 10.0 mi WNW 4.6 mph - N/A   Mostly Cloudy
7:15 AM 32.0 °F - 30.2 °F 93% 30.25 in 10.0 mi Calm Calm - N/A   Overcast
7:35 AM 32.4 °F 27.9 °F 30.4 °F 92% 30.26 in 10.0 mi WNW 4.6 mph - N/A   Overcast
7:55 AM 32.5 °F 29.3 °F 30.0 °F 90% 30.27 in 10.0 mi WNW 3.5 mph - N/A   Mostly Cloudy
8:15 AM 32.9 °F 28.5 °F 29.7 °F 88% 30.27 in 10.0 mi NW 4.6 mph - N/A   Mostly Cloudy
8:35 AM 32.9 °F 29.8 °F 29.3 °F 87% 30.28 in 10.0 mi NNW 3.5 mph - N/A   Mostly Cloudy
8:54 AM 33.8 °F 29.6 °F 29.8 °F 85% 30.28 in 10.0 mi WNW 4.6 mph - N/A   Overcast
9:15 AM 34.0 °F 28.8 °F 29.3 °F 83% 30.28 in 10.0 mi WNW 5.8 mph - N/A   Overcast
9:35 AM 34.3 °F 30.2 °F 29.3 °F 82% 30.29 in 10.0 mi WNW 4.6 mph - N/A   Overcast
9:55 AM 34.0 °F 28.8 °F 28.8 °F 81% 30.29 in 10.0 mi NW 5.8 mph - N/A   Overcast
10:15 AM 34.7 °F 31.8 °F 28.9 °F 79% 30.29 in 10.0 mi WNW 3.5 mph - N/A   Overcast
10:34 AM 35.1 °F 31.0 °F 28.9 °F 78% 30.29 in 10.0 mi NW 4.6 mph - N/A   Overcast
10:55 AM 35.6 °F 31.7 °F 28.0 °F 74% 30.29 in 10.0 mi West 4.6 mph - N/A   Overcast
11:15 AM 36.9 °F 31.4 °F 27.1 °F 68% 30.29 in 10.0 mi WNW 6.9 mph - N/A   Overcast
11:35 AM 36.0 °F 30.3 °F 27.1 °F 70% 30.30 in 10.0 mi West 6.9 mph - N/A   Overcast
11:55 AM 36.0 °F 29.6 °F 27.1 °F 70% 30.30 in 10.0 mi NW 8.1 mph - N/A   Overcast
12:15 PM 36.0 °F 32.1 °F 27.1 °F 70% 30.30 in 10.0 mi WNW 4.6 mph - N/A   Overcast
12:35 PM 35.6 °F 29.9 °F 27.1 °F 71% 30.30 in 10.0 mi NW 6.9 mph - N/A   Overcast
12:55 PM 35.8 °F 29.4 °F 27.1 °F 71% 30.31 in 10.0 mi WNW 8.1 mph - N/A   Overcast
1:15 PM 36.0 °F 31.1 °F 27.7 °F 72% 30.31 in 10.0 mi WNW 5.8 mph - N/A   Overcast
1:35 PM 36.5 °F 31.8 °F 28.2 °F 72% 30.31 in 10.0 mi WNW 5.8 mph - N/A   Overcast
1:55 PM 37.0 °F 31.6 °F 28.2 °F 70% 30.30 in 10.0 mi WNW 6.9 mph - N/A   Overcast
2:15 PM 36.7 °F 32.0 °F 28.2 °F 71% 30.31 in 10.0 mi NW 5.8 mph - N/A   Overcast
2:35 PM 36.7 °F 31.2 °F 28.4 °F 72% 30.31 in 10.0 mi NW 6.9 mph - N/A   Overcast
2:55 PM 36.5 °F 30.3 °F 28.6 °F 73% 30.32 in 10.0 mi NW 8.1 mph - N/A   Overcast
3:15 PM 36.5 °F 31.0 °F 28.4 °F 72% 30.32 in 10.0 mi NW 6.9 mph - N/A   Overcast
3:35 PM 36.9 °F 31.4 °F 28.2 °F 71% 30.32 in 10.0 mi WNW 6.9 mph - N/A   Overcast
3:55 PM 37.0 °F 32.4 °F 28.0 °F 70% 30.32 in 10.0 mi WNW 5.8 mph - N/A   Overcast
4:15 PM 37.0 °F 32.4 °F 28.4 °F 71% 30.32 in 10.0 mi NW 5.8 mph - N/A   Overcast
4:35 PM 36.5 °F 32.7 °F 28.8 °F 74% 30.32 in 10.0 mi NW 4.6 mph - N/A   Overcast
4:55 PM 36.1 °F 31.4 °F 29.3 °F 76% 30.32 in 10.0 mi NW 5.8 mph - N/A   Overcast
5:15 PM 36.1 °F 31.4 °F 29.7 °F 77% 30.32 in 10.0 mi NNW 5.8 mph - N/A   Overcast
5:35 PM 36.9 °F 33.1 °F 29.1 °F 74% 30.32 in 10.0 mi NNW 4.6 mph - N/A   Overcast
5:55 PM 36.5 °F 32.7 °F 28.9 °F 74% 30.33 in 10.0 mi WNW 4.6 mph - N/A   Overcast
6:15 PM 37.6 °F 31.6 °F 28.4 °F 69% 30.33 in 10.0 mi NW 8.1 mph - N/A   Overcast
6:35 PM 36.7 °F 32.0 °F 27.9 °F 70% 30.33 in 10.0 mi WNW 5.8 mph - N/A   Scattered Clouds
6:55 PM 36.5 °F 31.8 °F 28.0 °F 71% 30.33 in 10.0 mi WNW 5.8 mph - N/A   Mostly Cloudy
7:15 PM 36.5 °F 31.0 °F 28.4 °F 72% 30.33 in 10.0 mi NW 6.9 mph - N/A   Overcast
7:35 PM 36.0 °F 32.1 °F 28.9 °F 76% 30.34 in 10.0 mi WNW 4.6 mph - N/A   Mostly Cloudy
7:55 PM 35.1 °F 29.3 °F 29.3 °F 80% 30.35 in 10.0 mi WNW 6.9 mph - N/A   Overcast
8:15 PM 33.8 °F 29.6 °F 29.3 °F 84% 30.34 in 10.0 mi WNW 4.6 mph - N/A   Scattered Clouds
8:35 PM 33.3 °F 30.2 °F 29.3 °F 85% 30.35 in 10.0 mi NW 3.5 mph - N/A   Mostly Cloudy
8:55 PM 33.1 °F - 29.3 °F 86% 30.36 in 10.0 mi Calm Calm - N/A   Overcast
9:15 PM 33.1 °F 30.0 °F 29.3 °F 86% 30.38 in 10.0 mi NW 3.5 mph - N/A   Overcast
9:35 PM 32.9 °F 29.8 °F 29.3 °F 87% 30.38 in 10.0 mi NW 3.5 mph - N/A   Overcast
9:55 PM 32.4 °F 29.1 °F 29.1 °F 88% 30.39 in 10.0 mi NW 3.5 mph - N/A   Mostly Cloudy
10:15 PM 32.0 °F - 28.9 °F 88% 30.39 in 10.0 mi Calm Calm - N/A   Clear
10:35 PM 31.8 °F - 28.9 °F 89% 30.40 in 10.0 mi Calm Calm - N/A   Clear
10:55 PM 31.6 °F 28.3 °F 28.9 °F 90% 30.39 in 10.0 mi West 3.5 mph - N/A   Clear
11:15 PM 31.6 °F 28.3 °F 29.3 °F 91% 30.40 in 10.0 mi West 3.5 mph - N/A   Clear
11:35 PM 31.1 °F 27.7 °F 28.9 °F 92% 30.40 in 10.0 mi NW 3.5 mph - N/A   Clear
11:55 PM 30.9 °F 27.5 °F 29.1 °F 93% 30.40 in 10.0 mi NNW 3.5 mph - N/A   Clear